User: anonymous   Login
Location: Caltech
(34.1382°N, 118.1253°W)
Time: 22:54:20
(UTC-08:00)
Language:

Cosmos 1833 Rocket - Orbit

View from above orbital plane
View from above orbital plane
View from above satellite
View from above satellite

Ground track
Ground track

The orbit data is extracted from the following two-line orbital elements,

1 17590U 87027B   14331.13101039 -.00000034  00000-0  71398-5 0  8345
2 17590 071.0039 314.6532 0007603 283.8168 076.2110 14.16667315431971
Epoch (UTC): 27 November 2014 03:08:39
Eccentricity: 0.0007603
inclination: 71.0039°
perigee height: 831 km
apogee height: 842 km
right ascension of ascending node: 314.6532°
argument of perigee: 283.8168°
revolutions per day: 14.16667315
mean anomaly at epoch: 76.2110°
orbit number at epoch: 43197

The dashed part of the orbit path shows where the satellite is in the earth's shadow,  

DLR